CW1439 Weather Reports


time (UTC)temp
F
wind
direction
speed
knots
gust
knots
rain 1hr
in
rain 24hr
in
rain mn
in
humidity
%
barometer
mb
20260504070340 43 226 0.0 0.0 0.00 0.00 0.00 67 1013.6
20260504050351 46 230 0.0 0.9 0.00 0.00 0.00 60 1013.7
20260504045845 46 229 0.0 0.9 0.00 0.00 0.00 60 1013.6
20260504045341 46 229 0.0 0.0 0.00 0.00 0.00 60 1013.7
20260504044837 46 230 0.0 0.0 0.00 0.00 0.00 59 1013.7
20260504044354 47 229 0.0 0.9 0.00 0.00 0.00 59 1013.7
20260504043851 47 229 0.0 1.7 0.00 0.00 0.00 58 1013.7
20260504043407 47 229 0.0 1.7 0.00 0.00 0.00 58 1013.7
20260504042841 47 236 0.9 1.7 0.00 0.00 0.00 57 1013.7
20260504042338 47 228 0.9 1.7 0.00 0.00 0.00 57 1013.5
20260504041836 47 236 0.0 1.7 0.00 0.00 0.00 57 1013.6
20260504041506 47 237 0.0 1.7 0.00 0.00 0.00 58 1013.6
20260504040849 47 236 0.0 0.9 0.00 0.00 0.00 58 1013.6
20260504040407 47 236 0.0 0.0 0.00 0.00 0.00 58 1013.6
20260504035842 48 236 0.0 0.0 0.00 0.00 0.00 58 1013.5
20260504035338 48 236 0.0 4.3 0.00 0.00 0.00 56 1013.4
20260504034914 49 236 0.0 4.3 0.00 0.00 0.00 56 1013.3
20260504034349 48 190 2.6 4.3 0.00 0.00 0.00 55 1013.2
20260504033844 48 255 1.7 3.5 0.00 0.00 0.00 56 1013.2
20260504033341 48 228 0.0 0.9 0.00 0.00 0.00 56 1013.2
20260504032839 48 228 0.0 0.9 0.00 0.00 0.00 55 1013.1
20260504032355 49 228 0.0 0.9 0.00 0.00 0.00 55 1013.1
20260504031853 49 228 0.0 0.9 0.00 0.00 0.00 55 1013.1
20260504031348 49 228 0.0 1.7 0.00 0.00 0.00 55 1013.1
20260504030850 49 228 0.0 1.7 0.00 0.00 0.00 54 1013.0
20260504030347 49 228 0.0 2.6 0.00 0.00 0.00 53 1012.9
20260504025845 50 248 0.9 2.6 0.00 0.00 0.00 53 1013.0
20260504025402 50 232 0.9 2.6 0.00 0.00 0.00 52 1013.0
20260504024836 50 249 0.9 2.6 0.00 0.00 0.00 52 1013.0
20260504024353 50 236 0.9 1.7 0.00 0.00 0.00 52 1013.0
20260504023850 50 214 0.0 0.9 0.00 0.00 0.00 51 1013.0
20260504023406 50 214 0.0 1.7 0.00 0.00 0.00 51 1013.0
20260504022842 50 214 0.9 1.7 0.00 0.00 0.00 51 1013.1
20260504022339 50 214 0.0 1.7 0.00 0.00 0.00 50 1013.0
20260504021856 50 214 0.0 1.7 0.00 0.00 0.00 51 1013.1
20260504021354 50 214 0.0 1.7 0.00 0.00 0.00 51 1013.1
20260504020851 50 206 0.0 1.7 0.00 0.00 0.00 51 1013.2
20260504020347 50 198 0.0 1.7 0.00 0.00 0.00 50 1013.2
20260504015843 50 200 0.0 2.6 0.00 0.00 0.00 50 1013.1
20260504015340 50 204 0.9 2.6 0.00 0.00 0.00 50 1013.1
20260504014854 50 184 0.9 1.7 0.00 0.00 0.00 50 1013.1
20260504014411 51 194 0.0 1.7 0.00 0.00 0.00 49 1013.1
20260504013846 51 193 0.9 1.7 0.00 0.00 0.00 50 1013.0
20260504013403 51 193 0.0 1.7 0.00 0.00 0.00 49 1013.0
20260504012844 51 192 0.9 1.7 0.00 0.00 0.00 49 1012.9
20260504012341 51 192 0.0 0.9 0.00 0.00 0.00 49 1012.8
20260504011837 52 193 0.9 1.7 0.00 0.00 0.00 48 1012.8
20260504011414 52 201 0.0 1.7 0.00 0.00 0.00 48 1012.8
20260504010849 52 193 0.0 1.7 0.00 0.00 0.00 47 1012.8
20260504010406 53 193 0.0 3.5 0.00 0.00 0.00 47 1012.8
20260504005841 53 210 1.7 4.3 0.00 0.00 0.00 45 1012.8
20260504005339 54 210 0.9 5.2 0.00 0.00 0.00 45 1012.7
20260504004915 54 195 1.7 5.2 0.00 0.00 0.00 44 1012.7
20260504004411 54 240 1.7 3.5 0.00 0.00 0.00 44 1012.6
20260504003848 54 245 1.7 5.2 0.00 0.00 0.00 44 1012.6
20260504003346 54 236 1.7 5.2 0.00 0.00 0.00 43 1012.6
20260504002902 55 243 1.7 4.3 0.00 0.00 0.00 43 1012.5
20260504002338 55 263 1.7 5.2 0.00 0.00 0.00 42 1012.4
20260504001836 55 224 1.7 6.1 0.00 0.00 0.00 41 1012.3
20260504001354 55 285 2.6 6.1 0.00 0.00 0.00 41 1012.3
20260504000911 56 245 0.9 6.1 0.00 0.00 0.00 41 1012.3
20260504000346 56 228 2.6 6.1 0.00 0.00 0.00 41 1012.2
20260503235838 56 235 2.6 6.1 0.00 0.00 0.00 41 1012.2
20260503235355 56 239 1.7 6.1 0.00 0.00 0.00 40 1012.1
20260503234852 57 253 2.6 7.8 0.00 0.00 0.00 40 1012.1
20260503234347 57 252 3.5 7.8 0.00 0.00 0.00 39 1012.2
20260503233845 57 301 3.5 7.8 0.00 0.00 0.00 38 1012.1
20260503233347 58 267 1.7 7.8 0.00 0.00 0.00 40 1012.1
20260503232843 58 262 4.3 10.4 0.00 0.00 0.00 38 1012.0
20260503232359 59 297 5.2 10.4 0.00 0.00 0.00 38 1012.0
20260503231853 59 290 2.6 10.4 0.00 0.00 0.00 38 1011.9
20260503231350 59 263 0.9 12.2 0.00 0.00 0.00 38 1012.0
20260503230847 59 269 1.7 12.2 0.00 0.00 0.00 39 1011.9
20260503230343 59 267 5.2 12.2 0.00 0.00 0.00 37 1011.9
20260503225841 59 287 5.2 12.2 0.00 0.00 0.00 37 1011.8
20260503225337 59 301 2.6 8.7 0.00 0.00 0.00 38 1011.8
20260503224914 59 242 1.7 12.2 0.00 0.00 0.00 37 1011.8
20260503224352 59 271 3.5 12.2 0.00 0.00 0.00 37 1011.9
20260503223847 59 276 5.2 14.8 0.00 0.00 0.00 37 1011.9
20260503223345 59 264 4.3 14.8 0.00 0.00 0.00 37 1011.9
20260503222841 59 295 7.8 13.0 0.00 0.00 0.00 36 1011.8
20260503222338 60 242 2.6 11.3 0.00 0.00 0.00 39 1011.9
20260503221915 60 266 4.3 11.3 0.00 0.00 0.00 37 1011.9
20260503221353 60 280 7.0 11.3 0.00 0.00 0.00 38 1011.9
20260503220851 59 329 4.3 10.4 0.00 0.00 0.00 37 1011.8
20260503220347 59 338 6.1 10.4 0.00 0.00 0.00 38 1011.9
20260503215848 59 316 2.6 9.6 0.00 0.00 0.00 36 1012.0
20260503215344 59 357 5.2 11.3 0.00 0.00 0.00 37 1012.0
20260503214841 59 278 2.6 11.3 0.00 0.00 0.00 37 1011.8
20260503214339 59 277 2.6 11.3 0.00 0.00 0.00 39 1011.8
20260503213836 59 262 2.6 12.2 0.00 0.00 0.00 38 1011.8
20260503213353 60 239 7.0 14.8 0.00 0.00 0.00 36 1011.9
20260503212850 60 298 5.2 14.8 0.00 0.00 0.00 37 1011.7
20260503212346 59 304 7.0 13.9 0.00 0.00 0.00 38 1011.8
20260503211904 59 287 2.6 10.4 0.00 0.00 0.00 37 1011.6
20260503211339 59 227 6.1 10.4 0.00 0.00 0.00 37 1011.7
20260503210915 59 284 3.5 13.9 0.00 0.00 0.00 37 1011.7
20260503210412 59 274 6.1 13.9 0.00 0.00 0.00 36 1011.6
20260503205848 58 284 2.6 9.6 0.00 0.00 0.00 38 1011.7
20260503205345 58 258 1.7 14.8 0.00 0.00 0.00 37 1011.8
20260503204844 58 304 6.1 14.8 0.00 0.00 0.00 37 1011.8
20260503204341 58 266 4.3 12.2 0.00 0.00 0.00 38 1011.8
20260503203836 58 276 5.2 12.2 0.00 0.00 0.00 38 1011.8
20260503203354 58 269 2.6 12.2 0.00 0.00 0.00 40 1011.8
20260503202850 59 62 3.5 12.2 0.00 0.00 0.00 36 1011.7
20260503202352 59 266 0.9 9.6 0.00 0.00 0.00 37 1011.8
20260503201909 59 170 3.5 9.6 0.00 0.00 0.00 36 1011.8
20260503201405 58 15 4.3 10.4 0.00 0.00 0.00 37 1011.9
20260503200839 58 278 3.5 10.4 0.00 0.00 0.00 38 1011.8
20260503200338 57 290 5.2 10.4 0.00 0.00 0.00 38 1012.1
20260503195836 57 295 4.3 10.4 0.00 0.00 0.00 36 1012.1
20260503195414 58 25 3.5 12.2 0.00 0.00 0.00 36 1012.1
20260503194849 58 290 5.2 13.0 0.00 0.00 0.00 38 1012.1
20260503194348 57 277 7.0 13.0 0.00 0.00 0.00 39 1012.2
20260503193844 57 351 6.1 11.3 0.00 0.00 0.00 37 1012.2
20260503193342 56 283 7.0 17.4 0.00 0.00 0.00 36 1012.3
20260503192839 57 340 6.1 17.4 0.00 0.00 0.00 36 1012.5
20260503192336 57 297 2.6 12.2 0.00 0.00 0.00 37 1012.5
20260503191854 57 285 0.0 12.2 0.00 0.00 0.00 37 1012.5
20260503191351 57 330 5.2 11.3 0.00 0.00 0.00 37 1012.6
20260503190848 57 228 5.2 12.2 0.00 0.00 0.00 38 1012.7
20260503190345 57 323 4.3 12.2 0.00 0.00 0.00 38 1012.7
20260503185843 56 330 2.6 11.3 0.00 0.00 0.00 39 1012.7
20260503185344 57 266 6.1 11.3 0.00 0.00 0.00 38 1012.8
20260503184842 57 260 2.6 14.8 0.00 0.00 0.00 39 1013.0
20260503184337 56 51 6.1 14.8 0.00 0.00 0.00 37 1012.9
20260503183914 55 277 2.6 12.2 0.00 0.00 0.00 41 1012.9
20260503183349 55 233 3.5 12.2 0.00 0.00 0.00 38 1013.0
20260503182847 55 276 5.2 10.4 0.00 0.00 0.00 38 1013.1
20260503182344 55 245 2.6 9.6 0.00 0.00 0.00 39 1013.0
20260503181843 55 15 3.5 13.0 0.00 0.00 0.00 38 1013.1
20260503181341 55 233 4.3 13.0 0.00 0.00 0.00 38 1013.1
20260503180836 55 297 7.0 13.0 0.00 0.00 0.00 38 1013.2
20260503180355 55 243 7.8 11.3 0.00 0.00 0.00 38 1013.2
20260503175852 55 291 4.3 10.4 0.00 0.00 0.00 39 1013.2
20260503175349 55 333 3.5 13.9 0.00 0.00 0.00 41 1013.4
20260503174848 53 332 4.3 13.9 0.00 0.00 0.00 41 1013.3
20260503174344 53 233 4.3 13.0 0.00 0.00 0.00 41 1013.4
20260503173842 53 228 8.7 15.6 0.00 0.00 0.00 38 1013.5
20260503173344 53 334 7.8 15.6 0.00 0.00 0.00 42 1013.5
20260503172841 53 313 5.2 9.6 0.00 0.00 0.00 39 1013.6
20260503172337 52 297 3.5 11.3 0.00 0.00 0.00 41 1013.5
20260503171836 52 337 3.5 17.4 0.00 0.00 0.00 42 1013.6
20260503171353 53 276 5.2 17.4 0.00 0.00 0.00 41 1013.8
20260503170849 53 285 2.6 13.9 0.00 0.00 0.00 40 1013.7
20260503170345 53 295 3.5 13.9 0.00 0.00 0.00 40 1013.7
20260503150842 49 337 5.2 14.8 0.00 0.00 0.00 41 1014.6
20260503150339 49 318 5.2 14.8 0.00 0.00 0.00 43 1014.5
20260503131402 45 37 4.3 11.3 0.00 0.00 0.00 54 1015.0
20260503130836 45 350 3.5 9.6 0.00 0.00 0.00 56 1014.9
20260503130353 44 332 4.3 10.4 0.00 0.00 0.00 57 1015.0
20260503110348 40 347 4.3 7.8 0.00 0.00 0.00 66 1014.2
20260503090350 42 15 1.7 4.3 0.00 0.00 0.00 66 1012.6
20260503081349 43 20 1.7 5.2 0.00 0.01 0.00 65 1012.4
20260503080905 43 4 2.6 5.2 0.00 0.01 0.00 65 1012.4
20260503080341 43 339 1.7 2.6 0.00 0.01 0.00 65 1012.4
20260503072846 43 6 0.0 2.6 0.00 0.01 0.00 65 1012.0
20260503072343 43 6 0.0 2.6 0.00 0.01 0.00 65 1012.0
20260503071841 43 6 0.0 3.5 0.00 0.01 0.00 64 1011.9
20260503071341 43 6 0.9 6.1 0.00 0.01 0.00 64 1011.9
20260503070837 43 9 1.7 6.1 0.00 0.01 0.00 64 1011.9